Regional Weather Roundup
Issued by NWS

Home | Current Version | Previous Version | Graphics & Text | Print | Product List | Glossary On
Versions: 1 2 3 4 5 6 7 8 9 10 11 12 13 14 15 16 17 18 19 20 21 22 23 24 25 26 27 28 29 30 31 32 33 34 35 36 37 38 39 40 41 42 43 44 45 46 47 48 49 50
000
ASUS45 KBOI 270010
RWRID
WEATHER ROUNDUP FOR IDAHO
NATIONAL WEATHER SERVICE BOISE ID
600 PM MDT SUN APR 26 2015

NOTE: "FAIR" INDICATES FEW OR NO CLOUDS BELOW 12000 FEET
WITH NO SIGNIFICANT WEATHER AND/OR OBSTRUCTIONS TO VISIBILITY

IDZ012-014-270100-
SOUTHWEST IDAHO


CITY           SKY/WX    TMP DP  RH WIND       PRES   REMARKS
BOISE          SUNNY     59  21  23 NW16G25   30.12R
CALDWELL       SUNNY     61  21  21 NW9G17    30.15R
MOUNTAIN HOME  SUNNY     60  15  17 NW23G29   30.10S
$$

IDZ016-017-270100-
SOUTHCENTRAL IDAHO


CITY           SKY/WX    TMP DP  RH WIND       PRES   REMARKS
BURLEY         SUNNY     55  24  30 W16G24    30.05R
JEROME         SUNNY     56  21  25 SW28G35   30.07R
TWIN FALLS     SUNNY     57  19  22 W25       30.08R
$$

IDZ019>023-270100-
SOUTHEAST IDAHO


CITY           SKY/WX    TMP DP  RH WIND       PRES   REMARKS
IDAHO FALLS    CLOUDY    50  37  61 N13       30.05R
POCATELLO      PTSUNNY   55  26  32 W10       30.05R
REXBURG        CLOUDY    44  37  76 NW7       30.06R
$$

IDZ006-010-011-018-031-032-270100-
CENTRAL IDAHO MOUNTAINS


CITY           SKY/WX    TMP DP  RH WIND       PRES   REMARKS
MCCALL         MOSUNNY   45  20  36 N14G20    30.15R
STANLEY          N/A     45  20  36 NW8G21    30.14R
SALMON         CLOUDY    48  28  46 N5        30.14R
CHALLIS        CLOUDY    47  26  44 N14       30.12R
$$

IDZ002-004-006-007-026-270100-
NORTHERN IDAHO


CITY           SKY/WX    TMP DP  RH WIND       PRES   REMARKS
LEWISTON       SUNNY     62  23  22 E3        30.19S
LOWELL           N/A     55  34  45 CALM      30.23R
COEUR D`ALENE  PTSUNNY   54  28  37 W3        30.21R
MULLAN PASS    CLOUDY    37  23  56 NW6       30.18R WCI  32
$$



USA.gov is the U.S. government's official web portal to all federal, state and local government web resources and services.